Find Starlink 30154

NORAD ID: 57495 Int'l Des: 2023-113 Owner: SPXS Country: US Constellation: starlink operational
LEOCIRCULAR

当前视图

正在加载3D地球...

About Starlink 30154

Starlink 30154 (NORAD 57495) is a starlink constellation satellite (v2 mini) launched Aug 7, 2023 by SPXS of US. It operates in LEO, CIRCULAR orbit with a mass of 730.00 kg.

关于 Starlink 30154

正在加载描述...

即将过境

Passes for default location (London). Set your location on the main map for personalized predictions.

高度历史

Loading altitude history...

两行轨道根数

1 57495U 23113A 26175.18101866 .00004940 00000-0 18903-3 0 9993
2 57495 43.0005 134.4830 0000727 269.6150 90.4618 15.27557767159805
Epoch: Jun 24, 2026 • Age: 27 hours

当前状态

高度 483.6 km
速度 7.63 km/s
星下点 -4.75°S, 77.92°W
发射日期 Aug 7, 2023
运行时间 2.8 years
类型 internet

技术详情

分类 Payload
质量 730.00 kg
干质量 700.00 kg
总质量 730.00 kg
长度 0.30 m
直径 4.10 m
跨度 29.00 m
形状 Box + pan
制造商 SPXS
平台类型 Starlink V2M
阶段状态 In Orbit
所有者/国家 SPXS/US

Most Searched